C/2022 R2 ( ATLAS )

Japanese version
Home page
Updated on November 26, 2022

---------------------------------------------------------------------

* Profile

Discovery Date September 14, 2022
Magnitude 17.6 mag
Discoverer Asteroid Terrestrial-Impact Last Alert System (ATLAS) search program

* Pictures

* Orbital Elements

Epoch 2022 Aug. 9.0 TT = JDT 2459800.5
T 2022 Oct. 25.21958 TT                                 Rudenko
q   0.6325956            (2000.0)            P               Q
z  +0.0023817      Peri.   78.37564     -0.41430282     -0.58945573
 +/-0.0000470      Node    60.40367     +0.11778126     -0.79025111
e   0.9984933      Incl.   52.89405     +0.90248587     -0.16746678
>From 292 observations 2022 Sept. 14-Oct. 30, mean residual 0".7.

* Finding Charts

* Magnitudes Graph

        m1 = 15.0 + 5 log d + 10.0 log r

---------------------------------------------------------------------

The orbital elements are published on M.P.E.C. 2022-V125.
The charts are made with StellaNavigator Ver.10 (AstroArts).
The magnitudes graphs are made with Comet for Windows.

---------------------------------------------------------------------

Copyright(C) Seiichi Yoshida (comet@aerith.net). All rights reserved.